Temp
4 4 3 3 3 3 3 3 3 3 3 3 4 4 4 4 4 4 4 4 4 3 4 4 4 3 3 3 3 2 2 2 2 2 2 2 2 2 2 3 3 3 4 4
4 4 3 3 3 3 3 2 2 3 2 2 3 4 4 4 4 4 4 4 3 4 3 3 3 3 3 2 2 2 2 2 2 2 2 2 2 2 3 3 3 3 3 4
3 3 3 2 2 2 2 2 2 1 2 2 3 3 5 4 5 4 4 4 3 3 3 3 2 2 2 2 1 1 1 1 1 1 2 2 2 2 3 3 3 3 3 3
3 4 3 2 1 1 1 2 1 1 1 1 1 4 4 5 5 5 5 4 4 3 3 2 2 2 1 1 1 1 0 0 1 1 1 2 2 2 3 3 3 3 3 2
2 2 2 1 1 1 1 1 0 0 -0 -0 -0 0 4 4 5 5 5 4 4 4 3 2 1 1 1 0 0 0 0 0 0 1 1 1 2 2 3 3 3 3 2 2
2 2 1 1 1 -0 -0 -1 -1 -1 -1 -1 1 1 4 3 4 5 4 4 4 3 3 2 0 0 0 -0 -0 -0 -0 -0 -0 0 0 1 1 2 2 2 2 2 2 2
1 2 1 0 -0 -1 -1 -1 -1 -1 -2 1 -1 -1 2 3 3 3 3 4 4 3 3 2 1 -0 -0 -1 -1 -1 -1 -1 -1 -0 0 1 1 2 2 2 2 2 2 2
-0 -0 1 -0 -1 -1 -1 -2 -0 0 1 1 -2 -0 2 2 2 3 3 3 3 3 3 1 0 -1 -1 -1 -1 -2 -2 -2 -1 -0 -0 1 1 1 2 2 1 1 1 1
0 -1 -0 -1 -1 -2 -2 -3 -2 -2 -3 -2 1 -0 1 1 1 2 2 2 2 2 1 -0 -1 -1 -2 -2 -2 -2 -2 -2 -1 -0 -0 0 1 1 1 1 1 0 0 0
-1 -2 -1 -2 -2 -3 -3 -3 -3 -3 -2 -1 0 -1 1 -0 0 1 1 1 1 0 -0 -1 -2 -2 -2 -2 -2 -2 -2 -2 -1 -1 -0 0 1 1 0 0 -0 -0 -0 -0
-2 -2 -3 -3 -3 -3 -3 -4 -3 -3 -3 -1 0 1 -1 -1 -0 0 0 0 -1 -1 -2 -2 -3 -3 -3 -3 -3 -2 -2 -2 -1 -1 -0 -0 0 0 -0 -1 -1 -1 -1 -1
-3 -4 -4 -3 -3 -3 -3 -4 -4 -2 -3 -4 -4 -1 -1 -1 -1 -1 -1 -1 -2 -3 -3 -3 -3 -3 -3 -3 -3 -3 -2 -2 -2 -1 -1 -0 -0 -0 -1 -1 -1 -1 -1 -1
-4 -4 -4 -4 -4 -4 -4 -4 -4 -4 -3 -4 -2 -1 -1 -2 -2 -1 -2 -2 -3 -3 -3 -3 -3 -3 -3 -3 -3 -3 -3 -2 -2 -2 -1 -1 -1 -1 -2 -2 -2 -2 -2 -2
-6 -5 -4 -3 -4 -4 -5 -4 -4 -4 -4 -3 -3 -2 -2 -2 -3 -3 -3 -3 -3 -4 -4 -4 -4 -4 -4 -4 -4 -4 -3 -3 -3 -2 -2 -2 -2 -2 -2 -2 -2 -2 -2 -3
-6 -6 -5 -5 -6 -5 -5 -5 -5 -5 -5 -5 -3 -4 -4 -4 -4 -4 -4 -4 -4 -4 -4 -4 -4 -4 -4 -4 -4 -4 -4 -4 -3 -3 -3 -3 -3 -3 -3 -3 -3 -3 -3 -3
-6 -6 -6 -6 -6 -6 -6 -6 -6 -5 -5 -6 -5 -5 -5 -4 -5 -4 -4 -4 -4 -4 -4 -4 -5 -6 -5 -5 -5 -5 -5 -5 -5 -4 -4 -3 -4 -3 -4 -3 -4 -4 -3 -3
-7 -7 -7 -6 -6 -7 -7 -6 -5 -5 -5 -6 -6 -6 -6 -5 -5 -5 -4 -4 -4 -4 -5 -6 -6 -6 -6 -6 -6 -6 -6 -6 -5 -5 -4 -4 -4 -4 -4 -5 -5 -4 -4 -4
-7 -7 -7 -7 -7 -7 -5 -6 -5 -6 -6 -7 -7 -6 -6 -6 -5 -5 -5 -5 -5 -5 -6 -6 -6 -6 -6 -7 -7 -7 -7 -6 -6 -5 -5 -5 -5 -5 -5 -6 -6 -6 -6 -6
-8 -7 -8 -7 -7 -6 -6 -6 -7 -7 -6 -7 -7 -6 -6 -6 -6 -6 -6 -6 -6 -6 -6 -6 -6 -6 -7 -8 -7 -8 -7 -6 -6 -6 -6 -6 -6 -5 -7 -8 -7 -7 -7 -8
-8 -8 -8 -8 -8 -7 -7 -7 -7 -7 -8 -7 -7 -7 -7 -7 -7 -6 -6 -6 -6 -7 -7 -7 -7 -7 -8 -8 -8 -8 -7 -7 -7 -6 -6 -6 -6 -6 -8 -8 -7 -7 -7 -8
-9 -10 -9 -8 -8 -8 -7 -7 -8 -8 -8 -7 -8 -8 -8 -8 -8 -7 -7 -7 -7 -7 -7 -8 -9 -8 -8 -8 -8 -8 -8 -7 -7 -7 -7 -7 -7 -8 -8 -8 -8 -8 -8 -8
-9 -10 -10 -10 -9 -8 -9 -9 -9 -9 -9 -9 -8 -9 -9 -9 -9 -8 -8 -8 -8 -8 -9 -9 -9 -9 -8 -9 -8 -8 -8 -8 -8 -7 -7 -7 -7 -7 -8 -8 -8 -8 -8 -8
-11 -10 -9 -9 -9 -9 -9 -9 -9 -9 -9 -9 -10 -10 -10 -10 -10 -10 -9 -10 -10 -10 -10 -10 -9 -9 -9 -9 -8 -9 -9 -8 -8 -8 -7 -8 -8 -7 -8 -8 -8 -8 -8 -8
-10 -10 -10 -10 -10 -10 -10 -11 -11 -10 -10 -11 -11 -11 -11 -10 -10 -10 -10 -10 -10 -10 -10 -10 -9 -9 -9 -9 -9 -9 -9 -9 -8 -8 -8 -8 -8 -8 -7 -8 -8 -8 -8 -8
-11 -11 -11 -11 -11 -11 -11 -11 -12 -12 -12 -11 -11 -11 -12 -12 -11 -11 -11 -11 -11 -11 -10 -10 -10 -10 -9 -10 -10 -10 -9 -9 -9 -8 -8 -8 -8 -8 -8 -8 -8 -8 -8 -8
-11 -11 -12 -13 -12 -12 -12 -12 -12 -12 -12 -12 -12 -12 -12 -12 -12 -11 -11 -11 -11 -11 -11 -11 -10 -10 -10 -10 -10 -10 -10 -9 -9 -8 -8 -8 -8 -8 -8 -8 -8 -8 -8 -8
Height
3113 3112 3110 3109 3108 3106 3105 3105 3106 3106 3106 3106 3105 3105 3105 3104 3104 3104 3105 3106 3107 3109 3109 3110 3111 3113 3114 3116 3117 3118 3120 3120 3121 3120 3120 3119 3119 3118 3117 3116 3114 3113 3111 3110
3113 3109 3106 3104 3104 3104 3102 3102 3103 3102 3102 3104 3100 3100 3101 3100 3101 3102 3102 3104 3106 3105 3106 3107 3109 3111 3111 3113 3114 3115 3117 3117 3117 3117 3117 3117 3116 3115 3114 3111 3109 3106 3104 3102
3110 3108 3106 3103 3100 3100 3099 3098 3099 3100 3098 3097 3098 3092 3094 3096 3097 3098 3098 3099 3100 3103 3104 3105 3106 3107 3109 3110 3111 3112 3113 3113 3114 3114 3114 3113 3111 3110 3107 3105 3101 3098 3096 3094
3105 3102 3101 3102 3101 3099 3098 3096 3096 3095 3097 3096 3094 3091 3088 3089 3090 3092 3093 3094 3096 3097 3099 3101 3102 3104 3106 3107 3109 3110 3110 3110 3110 3110 3109 3108 3106 3104 3102 3099 3096 3092 3089 3085
3103 3100 3099 3097 3098 3097 3094 3092 3094 3093 3092 3091 3091 3093 3083 3082 3084 3086 3087 3089 3090 3091 3093 3096 3099 3100 3102 3103 3105 3106 3107 3107 3107 3106 3104 3102 3101 3098 3095 3092 3089 3085 3082 3079
3096 3094 3094 3093 3093 3094 3093 3092 3092 3091 3091 3087 3083 3086 3077 3079 3078 3080 3081 3082 3083 3084 3086 3089 3092 3095 3098 3100 3101 3102 3102 3102 3101 3100 3099 3097 3095 3092 3089 3086 3083 3079 3076 3072
3092 3090 3089 3089 3090 3089 3090 3091 3093 3092 3089 3079 3078 3080 3071 3075 3073 3075 3075 3075 3077 3077 3078 3081 3085 3090 3093 3096 3097 3098 3098 3097 3096 3094 3093 3091 3089 3086 3083 3079 3076 3073 3070 3066
3088 3085 3084 3084 3085 3086 3086 3088 3088 3084 3083 3078 3076 3073 3071 3070 3070 3069 3070 3070 3070 3071 3072 3075 3080 3085 3088 3091 3093 3094 3093 3092 3091 3090 3087 3085 3082 3079 3075 3072 3069 3065 3063 3059
3082 3080 3078 3079 3080 3082 3081 3083 3083 3083 3081 3081 3070 3068 3068 3068 3067 3066 3066 3066 3066 3067 3069 3071 3075 3080 3084 3086 3088 3090 3089 3088 3086 3084 3082 3079 3075 3071 3068 3064 3061 3058 3055 3052
3080 3079 3076 3076 3078 3077 3076 3079 3080 3079 3079 3072 3065 3065 3063 3064 3062 3062 3061 3062 3063 3064 3066 3069 3073 3077 3080 3082 3083 3084 3084 3083 3081 3079 3076 3072 3068 3064 3060 3057 3054 3051 3047 3044
3077 3078 3075 3074 3073 3074 3074 3075 3075 3075 3073 3070 3062 3060 3059 3063 3061 3060 3059 3059 3060 3063 3066 3069 3072 3075 3077 3078 3079 3079 3078 3077 3075 3073 3070 3066 3062 3058 3054 3051 3047 3044 3040 3037
3075 3072 3073 3072 3070 3069 3070 3071 3071 3070 3069 3068 3065 3060 3056 3059 3059 3058 3057 3057 3059 3061 3065 3068 3071 3072 3074 3075 3075 3073 3072 3071 3069 3067 3063 3060 3055 3051 3047 3044 3041 3037 3033 3029
3069 3067 3069 3067 3067 3066 3065 3065 3066 3066 3065 3063 3063 3057 3053 3056 3057 3055 3056 3056 3058 3060 3063 3066 3068 3069 3069 3069 3069 3068 3066 3064 3062 3060 3057 3053 3048 3045 3041 3038 3034 3030 3026 3022
3063 3061 3061 3061 3062 3061 3060 3060 3061 3062 3061 3058 3053 3055 3053 3054 3054 3053 3054 3054 3056 3058 3061 3063 3064 3065 3065 3064 3064 3063 3060 3058 3056 3053 3050 3046 3042 3038 3035 3031 3027 3022 3019 3016
3057 3053 3055 3053 3055 3055 3055 3055 3055 3053 3053 3052 3048 3048 3048 3049 3050 3050 3051 3051 3053 3055 3057 3059 3060 3061 3060 3060 3058 3057 3054 3052 3049 3046 3042 3039 3035 3032 3029 3025 3020 3016 3014 3011
3052 3047 3049 3046 3050 3048 3044 3044 3045 3044 3042 3040 3040 3039 3042 3041 3042 3044 3046 3047 3047 3049 3053 3055 3056 3056 3055 3053 3052 3050 3049 3046 3043 3040 3036 3033 3030 3026 3023 3019 3015 3012 3010 3007
3044 3043 3043 3040 3043 3041 3034 3032 3034 3034 3035 3035 3032 3035 3033 3034 3035 3036 3037 3039 3041 3043 3046 3048 3049 3049 3048 3048 3047 3045 3043 3041 3037 3034 3031 3027 3024 3021 3017 3014 3010 3008 3006 3004
3038 3038 3039 3037 3039 3034 3027 3025 3026 3025 3025 3024 3024 3025 3028 3028 3027 3027 3029 3031 3033 3036 3039 3040 3042 3042 3042 3042 3041 3040 3038 3035 3033 3029 3026 3022 3019 3015 3012 3009 3007 3005 3004 3002
3031 3033 3033 3033 3031 3027 3024 3023 3023 3022 3021 3020 3021 3021 3022 3023 3024 3024 3024 3026 3028 3030 3032 3034 3036 3036 3037 3037 3036 3035 3033 3031 3028 3025 3021 3018 3015 3011 3008 3006 3004 3003 3001 3001
3022 3025 3027 3026 3025 3021 3017 3017 3018 3018 3018 3017 3017 3018 3019 3020 3021 3021 3021 3021 3023 3024 3026 3028 3030 3031 3032 3032 3032 3031 3029 3027 3024 3021 3017 3014 3010 3007 3006 3004 3002 3001 2999 2998
3014 3017 3016 3019 3018 3015 3013 3016 3016 3019 3019 3013 3014 3015 3015 3016 3017 3017 3017 3017 3019 3020 3022 3023 3025 3026 3027 3027 3027 3027 3025 3023 3020 3018 3014 3010 3007 3004 3003 3002 3000 2999 2998 2997
3010 3011 3012 3014 3014 3011 3008 3010 3013 3011 3010 3011 3011 3012 3012 3012 3013 3013 3013 3014 3016 3017 3018 3020 3021 3022 3022 3023 3023 3023 3021 3019 3017 3014 3011 3007 3004 3001 3000 2999 2998 2997 2996 2995
3007 3006 3006 3008 3006 3002 3003 3004 3005 3006 3007 3007 3008 3008 3008 3009 3009 3010 3011 3012 3013 3015 3015 3016 3017 3018 3018 3018 3019 3018 3017 3015 3014 3010 3008 3004 3001 2998 2996 2996 2995 2994 2994 2993
2999 2999 2999 3002 3000 2999 2999 3000 3001 3001 3001 3002 3002 3002 3002 3003 3004 3005 3005 3006 3007 3008 3009 3010 3011 3012 3013 3012 3012 3013 3012 3011 3009 3007 3004 3001 2998 2995 2993 2992 2992 2992 2992 2992
2994 2994 2993 2993 2994 2994 2994 2993 2993 2994 2995 2995 2994 2994 2995 2995 2996 2996 2997 2998 2999 3000 3001 3001 3002 3004 3005 3005 3006 3006 3006 3006 3005 3003 3001 2998 2995 2993 2990 2989 2989 2989 2989 2990
2985 2986 2986 2986 2987 2986 2986 2987 2986 2985 2985 2985 2983 2983 2983 2983 2984 2985 2985 2986 2987 2989 2990 2991 2993 2995 2997 2997 2999 3000 3000 3001 3000 2999 2997 2995 2992 2990 2989 2988 2987 2987 2988 2988
Wind_Speed
12 12 12 13 12 14 14 13 14 13 12 13 13 13 13 16 16 15 20 21 18 16 16 16 18 18 16 14 14 12 11 10 10 10 11 12 15 17 21 24 26 28 28 29
15 16 14 14 15 14 13 14 16 16 16 16 19 19 15 17 15 16 15 20 20 20 16 16 17 18 17 16 15 14 13 11 11 11 13 16 17 19 22 23 26 28 30 32
16 18 16 13 13 13 15 15 15 13 14 17 19 23 20 20 18 19 19 19 22 20 18 18 17 17 17 18 17 16 14 12 13 14 15 16 18 21 24 26 29 31 31 31
12 11 12 15 16 13 13 13 14 14 10 6 7 8 12 14 20 22 21 23 23 24 24 23 20 19 18 19 18 16 15 14 14 14 15 16 19 22 24 26 28 29 30 30
16 18 16 15 15 14 14 13 10 10 12 13 11 8 13 14 21 20 19 25 26 27 29 26 23 21 20 20 19 17 16 14 14 14 16 19 22 24 27 29 30 30 30 30
21 20 18 16 14 13 11 9 9 11 9 5 13 13 11 15 18 19 19 22 25 29 33 32 28 24 22 22 20 18 16 15 15 16 19 21 23 26 28 30 30 30 30 30
15 17 19 18 15 14 12 6 3 4 4 5 7 9 18 13 14 14 18 22 26 26 29 34 32 26 24 22 20 17 15 15 16 19 21 24 27 30 30 31 30 30 29 29
10 8 12 14 18 10 14 11 6 5 3 1 3 7 4 8 15 18 18 21 20 25 26 31 30 28 25 23 19 17 16 16 18 21 23 26 27 30 31 31 30 29 28 29
7 8 10 13 12 15 10 15 16 5 8 4 8 8 11 14 16 18 18 14 18 19 23 29 30 28 25 21 17 17 18 18 19 21 23 26 28 30 31 31 30 28 28 28
12 10 13 15 15 17 16 10 6 8 4 5 5 6 7 4 6 7 8 10 15 19 24 28 28 25 21 19 19 18 19 21 21 22 25 28 29 30 31 30 30 29 29 28
18 15 8 13 14 15 19 16 11 7 4 3 3 3 7 3 5 7 7 7 11 17 22 25 24 21 19 18 19 20 19 21 23 25 28 29 29 29 29 30 30 30 29 28
16 10 10 14 15 14 19 16 17 11 6 7 2 6 10 9 9 6 7 7 12 18 21 23 21 20 19 18 16 16 20 21 24 26 30 31 30 29 29 30 31 31 31 30
14 11 6 5 13 19 17 22 21 19 17 12 5 5 6 8 7 11 15 6 12 20 22 22 21 21 19 16 15 18 21 25 28 30 30 31 31 29 29 30 31 32 30 25
20 23 17 14 6 3 9 20 21 22 19 22 25 21 15 12 20 21 12 8 14 20 22 23 22 20 17 17 21 24 27 30 32 34 33 30 30 29 29 29 31 31 22 19
30 28 25 28 27 27 28 26 23 25 28 24 24 23 20 20 18 15 11 10 18 22 24 23 21 17 17 19 21 25 29 32 34 32 31 29 28 27 27 27 28 21 17 17
28 22 20 26 24 28 32 32 29 32 35 34 34 33 30 34 32 27 22 18 16 24 25 24 19 19 19 22 24 26 26 26 26 27 27 26 25 24 24 25 21 17 16 15
23 28 22 18 19 23 24 31 34 37 38 29 32 28 27 29 28 25 23 22 22 22 26 26 21 22 25 26 26 22 21 22 24 25 24 23 22 21 22 20 17 16 13 11
25 26 19 13 13 8 14 12 16 18 25 31 32 32 29 23 17 16 18 21 26 24 27 31 28 25 27 18 19 19 19 20 22 22 22 21 20 20 19 15 14 14 9 6
25 21 18 10 14 19 12 12 13 14 17 17 17 17 16 14 13 13 12 17 19 24 27 28 26 22 17 17 19 16 17 19 21 21 20 20 19 18 13 12 11 11 6 7
33 32 25 13 5 5 4 12 15 14 17 20 20 18 14 11 11 12 11 13 18 21 24 25 23 14 17 19 17 14 16 19 21 21 19 19 18 14 11 13 11 10 6 8
13 23 31 18 16 13 16 13 12 10 10 14 14 13 13 13 16 15 15 15 18 19 18 14 14 17 17 19 19 15 14 15 18 20 19 17 16 12 11 13 12 10 5 5
13 9 10 16 13 14 14 17 18 16 16 14 13 12 11 11 12 15 17 18 18 18 18 19 19 20 20 20 19 13 13 14 18 19 19 16 16 12 10 13 13 9 7 6
13 18 10 13 11 16 13 15 20 24 21 19 19 19 19 17 16 17 19 20 21 21 22 22 22 23 24 23 20 14 13 14 18 20 20 18 18 14 12 12 13 9 8 8
18 18 22 20 22 23 19 17 18 19 21 22 22 24 25 25 25 24 25 26 27 27 26 28 29 29 28 26 22 17 16 16 17 20 21 20 18 15 12 11 12 11 10 9
19 18 21 25 26 25 23 23 23 24 26 27 29 30 30 30 31 33 34 34 33 33 33 34 34 32 30 28 24 22 20 19 16 20 22 22 19 15 11 8 9 9 8 7
28 29 27 22 26 29 31 31 34 35 35 35 36 35 34 36 40 41 43 42 41 41 41 41 40 38 36 35 31 26 25 23 17 21 22 21 21 15 10 7 6 6 7 7
Wind_Direction
302 288 280 273 266 262 259 254 258 262 266 270 270 270 262 263 253 240 230 225 218 220 219 229 222 219 221 220 219 219 224 231 245 256 267 278 286 289 291 292 292 292 292 291
304 291 279 269 266 263 260 261 262 266 265 268 271 266 260 260 254 248 238 232 223 226 234 231 234 234 226 225 221 223 228 240 255 262 269 272 274 281 286 290 293 294 292 288
303 290 283 272 264 260 261 258 263 262 268 267 275 281 258 252 251 243 238 225 225 236 244 245 238 238 235 230 226 228 232 242 251 262 275 285 292 299 303 304 305 304 300 295
299 290 283 275 268 263 268 268 262 261 262 256 255 283 262 243 246 245 242 239 238 240 239 238 236 236 236 231 230 234 238 244 258 274 285 297 303 306 307 308 308 304 299 296
290 282 280 274 270 260 256 260 260 258 247 261 249 257 260 251 243 245 244 244 243 245 246 243 239 233 231 227 228 231 239 255 274 284 298 307 311 312 313 314 312 308 301 295
284 275 269 264 261 254 252 255 258 253 243 240 236 224 265 245 250 236 237 238 239 242 242 238 233 231 228 224 226 230 241 259 279 293 304 311 313 314 314 314 311 306 299 294
288 275 263 255 249 247 236 212 252 233 210 250 224 219 244 243 243 237 237 240 240 237 235 234 230 225 223 222 227 236 253 275 287 297 302 308 311 311 312 312 309 304 299 293
272 273 248 246 234 233 224 205 224 273 249 61 220 234 267 245 246 257 256 250 248 236 231 223 219 218 218 224 231 246 263 281 290 298 307 310 311 312 312 311 308 303 299 295
235 245 239 241 232 221 227 220 230 255 267 274 235 262 270 265 268 270 267 267 248 236 221 211 209 211 215 221 237 257 271 279 289 303 307 312 316 316 314 310 306 303 301 300
257 263 245 239 231 225 218 224 194 198 232 236 217 256 220 238 255 282 280 265 247 226 211 205 205 210 215 227 245 256 269 283 298 308 311 316 317 317 313 309 306 304 304 301
241 243 260 233 232 232 226 224 214 212 211 268 277 169 182 239 315 320 320 276 237 219 209 205 208 212 223 239 250 264 278 287 299 305 311 315 317 316 312 308 304 304 304 301
252 259 250 254 253 244 235 235 227 232 221 229 255 247 228 251 282 326 337 273 217 211 208 208 213 222 232 244 260 279 287 300 305 309 313 315 315 316 311 307 305 305 304 302
239 236 259 261 254 246 238 237 234 232 243 229 232 232 220 232 261 291 327 307 227 212 212 216 222 227 236 253 281 294 301 305 309 311 314 313 314 312 307 306 306 305 303 294
233 232 231 243 259 253 229 242 244 242 244 248 239 253 249 243 286 293 299 274 225 220 222 224 228 235 248 278 290 299 303 309 312 311 311 310 309 308 304 306 306 306 299 291
237 238 243 251 247 256 268 266 261 252 251 246 258 260 262 266 264 276 279 275 239 227 228 232 234 242 267 278 290 297 301 306 307 307 310 307 305 302 303 306 305 301 296 300
249 259 255 248 257 265 267 264 258 255 256 255 260 262 267 270 274 276 264 257 253 234 233 238 242 264 279 288 295 297 298 299 302 305 307 303 300 301 303 304 302 298 301 303
247 235 237 269 249 248 254 256 262 260 255 256 256 265 262 271 276 272 261 251 238 237 237 231 249 266 278 283 290 288 291 297 306 311 306 304 303 302 302 300 297 302 304 306
235 247 264 261 251 243 266 246 247 247 240 244 254 263 271 274 272 264 251 238 226 224 234 241 253 262 268 271 276 279 295 304 306 311 310 311 309 301 299 295 297 304 295 313
238 240 231 242 233 257 260 265 246 248 250 251 258 263 266 271 265 259 251 230 230 228 234 249 258 262 264 259 271 281 291 304 314 314 314 314 310 302 294 297 294 313 291 285
237 237 240 229 237 249 259 242 244 248 251 252 254 258 263 259 246 245 239 227 224 228 233 236 239 239 251 267 270 268 290 305 315 317 316 317 313 303 279 292 300 301 299 264
210 227 231 237 236 257 257 235 223 216 252 244 253 261 261 250 245 238 227 221 221 228 232 229 234 250 264 276 275 281 288 314 320 323 321 320 315 298 276 292 301 300 295 288
226 218 220 230 247 251 239 228 222 239 240 246 247 247 249 245 235 224 223 221 225 224 226 236 244 253 266 272 281 281 287 311 327 329 324 320 319 309 271 283 292 288 264 259
233 222 221 216 222 243 246 237 239 246 251 248 247 246 244 244 238 231 228 227 227 228 231 237 244 256 267 270 274 284 284 296 319 333 324 317 326 312 283 268 281 273 269 268
242 239 236 244 248 253 256 250 249 249 250 251 252 252 252 249 245 243 242 237 236 238 240 246 250 258 263 267 270 276 284 288 305 322 325 316 320 317 307 268 264 270 256 263
245 249 249 248 251 258 261 263 262 261 261 261 261 262 262 260 255 255 250 248 247 246 247 251 255 258 259 259 264 275 285 279 294 312 321 310 311 318 304 275 256 253 240 217
261 262 258 258 260 255 260 263 268 272 273 273 273 273 273 271 269 264 262 259 257 255 253 252 254 258 260 259 260 264 271 279 278 304 312 307 307 307 291 271 247 224 207 194